Racecast

Grant Yeager

Temperance Bedford (MI) · 12 · SECMI D1MONROE · Compare head to head

Athlete rating 106.6 2022 TF season
Best race 113.4 XC
Races 77
Seasons 8 2015 — 2022

RankedNation #68591·MI #2812·MI D1 #1612·SEC #172·Team #37 ?

Rating scale ?
Speed rating — all races

Cross Country

XC speed rating

2021 XC 109.4

Temperance Bedford (MI) · Grade 12

Date Meet Event Result Place Rating Difficulty PR/SR Flags
2021-10-30 Lake Erie Metro Park OFFICIAL 5000m 20:31.8 29th · 4th on team 102.2 +0.007
2021-10-21 Hudson Mills Metropark - OFFICIAL 5000m 18:51.6 31st · 2nd on team 111.0 -0.006 ★CR CSR
2021-10-16 Munson Park 5000m 20:36.8 28th · 5th on team 102.5 +0.007
2021-10-02 Lake Erie Metro Park OFFICIAL 5000m 18:52.9 8th · 2nd on team 111.8 +0.007 ★CR CSR
2021-09-28 Munson Park 5000m 19:13.7 25th · 2nd on team 110.1 +0.007 ★CR CSR
2021-09-25 Ella Sharp Park OFFICIAL 5000m 19:15.5 160th · 7th on team 109.3 -0.001 ★CR CSR
2021-09-11 Hedges Boyer Park 5000m 18:31.2 11th · 1st on team 113.4 -0.003 ★PR ★CR ★R SR CSR RSR
2021-09-04 BGSU 5000m 18:42.9 67th · 9th on team 111.5 -0.003 PR ★CR SR CSR
2021-08-28 Walsh Park 5000m 18:59.2 38th · 6th on team 112.4 +0.012 ★CR R SR CSR RSR

2020 XC 108.8

Temperance Bedford (MI) · Grade 11

Date Meet Event Result Place Rating Difficulty PR/SR Flags
2020-10-17 Indian Creek OFFICIAL 5000m 19:03.8 34th · 4th on team 109.7 +0.004
2020-10-03 Indian Creek OFFICIAL 5000m 18:54.5 17th · 9th on team 110.3 +0.004 PR ★CR SR CSR
2020-09-26 Indian Creek OFFICIAL 5000m 19:06.3 27th · 8th on team 111.6 +0.004 PR CR R SR CSR RSR
2020-09-19 Indian Creek OFFICIAL 5000m 19:17 10th · 8th on team 108.1 +0.004 PR CR SR CSR RSR
2020-08-29 Indian Creek OFFICIAL 5000m 19:46 12th · 8th on team 106.5 +0.004 PR CR SR CSR
2020-08-22 Indian Creek OFFICIAL 5000m 19:54 12th · 6th on team 106.7 +0.004 PR CR SR CSR RSR

2019 XC 92.6

Temperance Bedford (MI) · Grade 10

Date Meet Event Result Place Rating Difficulty PR/SR Flags
2019-10-26 Lake Erie Metro Park OFFICIAL 5000m 21:14.3 128th · 13th on team 98.2 +0.007 PR CR SR CSR RSR
2019-10-17 Hudson Mills Metropark - OFFICIAL 5000m 21:18.7 201st · 12th on team 96.7 -0.006 PR CR SR CSR RSR
2019-10-12 Munson Park 5000m 22:00.6 46th · 12th on team 94.9 +0.007 PR CR SR CSR RSR
2019-10-05 Portage West MS 5000m 22:08.4 557th · 14th on team 92.9 -0.003 PR ★CR SR CSR
2019-09-28 Lake Erie Metro Park OFFICIAL 5000m 23:45.8 182nd · 14th on team 87.3 +0.007 CR CSR
2019-09-24 Indian Creek OFFICIAL 5000m 22:27.6 126th · 11th on team 93.4 +0.004 PR CR SR CSR RSR
2019-09-10 Hudson Mills Metropark - OFFICIAL 5000m 23:03.3 160th · 10th on team 88.9 -0.006 PR CR SR CSR RSR
2019-09-07 Hedges Boyer Park 5000m 23:21.7 539th · 8th on team 88.5 -0.003 PR CR SR CSR RSR

2018 XC 84.4

Temperance Bedford (MI) · Grade 9

Date Meet Event Result Place Rating Difficulty PR/SR Flags
2018-10-27 Lake Erie Metro Park OFFICIAL 5000m 24:55.7 213th · 22nd on team 83.8 +0.007
2018-10-18 Hudson Mills Metropark - OFFICIAL 5000m 23:52.5 260th · 22nd on team 86.0 -0.006 PR CR SR CSR
2018-10-13 Munson Park 5000m 24:07.1 63rd · 11th on team 86.1 +0.007 CR CSR
2018-10-09 Indian Creek OFFICIAL 5000m 24:34 36th · 21st on team 86.2 +0.004 CR CSR
2018-10-06 Portage West MS 5000m 25:34.1 593rd · 22nd on team 81.0 -0.003 CR CSR
2018-09-29 Lake Erie Metro Park OFFICIAL 5000m 24:06.9 267th · 23rd on team 86.5 +0.007 PR CR SR CSR RSR
2018-09-25 Cass Benton Park OFFICIAL 5000m 26:06.5 141st · 17th on team 82.1 +0.034 ★CR CSR
2018-09-21 Ella Sharp Park OFFICIAL 5000m 24:26.6 287th · 19th on team 85.6 -0.001 PR CR SR CSR RSR
2018-09-06 Willow Metropark OFFICIAL 5000m 25:03.6 218th · 17th on team 81.9 -0.003 PR ★CR SR CSR
2018-08-31 Oakland University 4000m 19:29.9 174th · 18th on team 84.8 +0.013 ★PR ★CR SR CSR RSR

2017 XC 103.1

Temperance Bedford (MI) · Grade 8

Date Meet Event Result Place Rating Difficulty PR/SR Flags
2017-10-21 Hudson Mills Metropark - OFFICIAL 3218m 14:44.9 68th · 10th on team 104.6 +0.020
2017-10-11 Huron Meadows Metropark OFFICIAL 3200m 14:19 27th · 7th on team 105.8 +0.001 ★CR SR CSR
2017-09-30 Lake Erie Metro Park OFFICIAL 3218m 13:51.1 71st · 16th on team 107.8 -0.000 ★PR ★CR SR CSR RSR
2017-09-28 Hudson Mills Metropark - OFFICIAL 3218m 14:14.3 29th · 7th on team 106.2 +0.020 SR CSR RSR
2017-09-23 Maumee Bay State Park 3200m 15:04.1 125th · 17th on team 104.4 +0.037 ★CR CSR RSR
2017-09-09 Hedges Boyer Park 2816m 14:56.5 152nd · 8th on team 89.5 ★PR ★CR SR CSR
2017-08-31 Eastwood HS 3200m 14:40.3 48th · 7th on team 103.2 +0.017 ★CR SR CSR RSR

2016 XC 102.1

Temperance Bedford (MI) · Grade 7

Date Meet Event Result Place Rating Difficulty PR/SR Flags
2016-10-15 Munson Park 3200m 13:48.3 40th · 18th on team 109.0 +0.000 ★PR ★CR R SR CSR RSR
2016-10-12 Heritage Park (Adrian) OFFICIAL 3218m 14:21.5 90th · 22nd on team 106.2 +0.014 ★CR CSR
2016-10-08 Monroe County Comm College 3218m 13:56.9 37th · 16th on team 106.6 -0.011 PR ★CR SR CSR
2016-10-01 Pearson's Metro Park 3000m 14:36 100th · 18th on team 97.4 ★CR CSR
2016-09-28 Hudson Mills Metropark - OFFICIAL 3218m 14:08.9 89th · 20th on team 108.5 +0.020 PR ★CR R SR CSR RSR
2016-09-24 Maumee Bay State Park 3218m 14:31 125th · 20th on team 107.0 +0.037 PR ★CR R SR CSR RSR
2016-09-14 Rolling Hills 3000m 13:47.4 81st · 22nd on team 85.2 +0.052 ★PR ★CR SR CSR
2016-09-10 Hedges Boyer Park 3200m 15:22.7 26th · 10th on team 99.7 +0.015 PR ★CR SR CSR RSR
2016-09-01 Eastwood HS 3200m 15:27.1 153rd · 22nd on team 99.1 +0.017 PR CR SR CSR RSR

2015 XC 99.2

Temperance Bedford (MI) · Grade 6

Date Meet Event Result Place Rating Difficulty PR/SR Flags
2015-10-24 Hudson Mills Metropark - OFFICIAL 2000m 8:15.7 64th · 5th on team 104.6 -0.062 ★PR ★CR R SR CSR RSR
2015-10-17 Munson Park 2000m 8:45.1 25th · 6th on team 100.6 -0.038 PR ★CR R SR CSR RSR
2015-10-14 Munson Park 2000m 8:57.2 20th · 8th on team 97.5 -0.038 PR CR R SR CSR RSR
2015-09-26 Sterling State Park 1850m -0.016 ★PR ★CR SR CSR
2015-09-16 Mill Pond Park 2414m 12:40 28th · 8th on team 94.0 +0.067 ★PR ★CR R SR CSR RSR

Track & Field

TF speed rating

2022 TF 105.5

Temperance Bedford (MI) · Grade 12

Date Meet Event Result Place Rating Difficulty PR/SR Flags
2022-04-26 SEC-HS: Bedford & Monroe at Dexter 800m 2:23.6 12th · 3rd on team 107.4 -0.027 ★PR SR RSR
2022-04-21 SEC-HS: Saline & Bedford at Huron 800m 2:29.11 22nd · 8th on team 103.6 -0.024 PR SR RSR

2021 TF 104.2

Temperance Bedford (MI) · Grade 11

Date Meet Event Result Place Rating Difficulty PR/SR Flags
2021-05-21 MHSAA LP Region 04-1 @ Saline 3200m 12:12.74 19th · 2nd on team 101.5 -0.033
2021-05-14 SEC-HS: Championship (Red) 3200m 11:38.55 21st · 3rd on team 106.8 -0.026 ★PR SR
2021-05-11 SEC-HS: Bedford & Ypsi vs Skyline (@Lincoln) 3200m 11:43.78 6th · 1st on team 106.3 -0.021 PR SR
2021-05-04 SEC-HS: Bedford at Monroe 800m 2:31.41 10th · 6th on team 102.0 -0.022 PR SR
2021-05-04 SEC-HS: Bedford at Monroe 1600m 5:33.96 9th · 2nd on team 103.2 -0.022
2021-04-27 SEC-HS: Bedford at AA Pioneer 3200m 12:15.81 9th · 3rd on team 102.8 -0.017 PR SR
2021-04-24 Warrior Classic 1600m 5:22.46 11th · 1st on team 107.5 -0.017 ★PR SR RSR
2021-04-22 SEC-HS: AA Huron, Saline at Bedford 1600m 5:26.77 21st · 3rd on team 105.7 -0.024 PR SR RSR
2021-03-30 Bedford at Whitmer 1600m 5:36.4 2nd · 2nd on team 101.7 -0.034 PR SR RSR

2019 TF 80.5

Temperance Bedford (MI) · Grade 9

Date Meet Event Result Place Rating Difficulty PR/SR Flags
2019-05-23 Freshman Beck Invitational 1600m 7:03 8th · 4th on team 83.1 -0.013
2019-05-23 Freshman Beck Invitational 800m 3:21.3 5th · 3rd on team 77.8 -0.013
2019-05-15 Eagle Invite lj 14-11.00 -0.021
2019-05-15 Eagle Invite 800m 3:21.32 61st · 10th on team 76.7 -0.021
2019-05-15 Eagle Invite 1600m 6:58.16 115th · 13th on team 83.0 -0.021 SR
2019-04-30 SEC-R: Monroe & Bedford @ Skyline 800m 3:04.82 36th · 10th on team 83.6 -0.021 PR SR RSR
2019-04-23 SEC Red Division - Bedford vs Saline 800m 3:11.89 24th · 10th on team 80.6 -0.026 PR SR
2019-03-23 Bedford @ Ida Scrimmage 800m 3:24.32 24th · 15th on team 76.2 -0.014 PR SR RSR
2019-03-23 Bedford @ Ida Scrimmage 1600m 6:59.27 25th · 19th on team 83.4 -0.014 SR RSR

2018 TF 98.9

Temperance Bedford (MI) · Grade 8

Date Meet Event Result Place Rating Difficulty PR/SR Flags
2018-05-16 Hornet MS Relays 1600m 6:50.47 79th · 7th on team 98.9 -0.030 SR RSR

2017 TF 102.2

Temperance Bedford (MI) · Grade 7

Date Meet Event Result Place Rating Difficulty PR/SR Flags
2017-05-15 SEC MS: Mill Creek (Dexter) vs. Bedford lj 11-01.00 -0.027
2017-05-15 SEC MS: Mill Creek (Dexter) vs. Bedford 1600m 6:36.28 8th · 5th on team 102.2 -0.027 PR SR RSR